Location: *
(48.7358°N, 0.3111°E)
Time: 14:16:32
(UTC+00:00)

COSMOS 2455 - Pass Details

Date: 22 October 2019
Orbit: 901 x 909 km, 67.1° (Epoch: 17 November)

Event Time Altitude Azimuth Distance (km) Brightness Sun altitude
Exits shadow 04:36:25 21° 310° (NW) 1,924 4.2 -19.2°
Maximum altitude 04:37:49 23° 330° (NNW) 1,846 4.2 -19.0°
Drops below altitude 10° 04:42:31 10° 21° (NNE) 2,604 5.6 -18.2°
Sets 04:45:37 0° 36° (NE) 3,548 6.5 -17.7°
